Previsão horária em Abartzuza

Hoje, 12 Abril, Segunda-feira

Tempo Temperatura Precipitação Vento Pressão Humidade
00:00 +1°C° 0 mm 3 m/s 715 mmHg 85%
01:00 0°C° 0 mm 3 m/s 715 mmHg 86%
02:00 0°C° 0 mm 3 m/s 715 mmHg 87%
03:00 -1°C° 0 mm 2 m/s 716 mmHg 88%
04:00 +1°C° 0 mm 2 m/s 716 mmHg 88%
05:00 +1°C° 0 mm 2 m/s 716 mmHg 87%
06:00 +1°C° 0 mm 2 m/s 716 mmHg 87%
07:00 +2°C° 0 mm 3 m/s 716 mmHg 80%
08:00 +3°C° 0 mm 3 m/s 716 mmHg 73%
09:00 +5°C° 0 mm 4 m/s 717 mmHg 66%
10:00 +6°C° 0 mm 4 m/s 716 mmHg 60%
11:00 +7°C° 0 mm 4 m/s 716 mmHg 53%
12:00 +10°C° 0 mm 4 m/s 716 mmHg 47%
13:00 +10°C° 0 mm 4 m/s 716 mmHg 46%
14:00 +11°C° 0 mm 4 m/s 716 mmHg 45%
15:00 +11°C° 0 mm 4 m/s 715 mmHg 44%
16:00 +10°C° 0 mm 3 m/s 715 mmHg 51%
17:00 +9°C° 0 mm 3 m/s 715 mmHg 58%
18:00 +8°C° 0 mm 3 m/s 715 mmHg 65%
19:00 +5°C° 0 mm 3 m/s 716 mmHg 72%
20:00 +5°C° 0 mm 2 m/s 716 mmHg 79%
21:00 +3°C° 0 mm 2 m/s 716 mmHg 86%
22:00 +3°C° 0 mm 2 m/s 716 mmHg 86%
23:00 +3°C° 0 mm 2 m/s 716 mmHg 86%

Amanhã, 13 Abril, Terça-feira

Tempo Temperatura Precipitação Vento Pressão Humidade
00:00 +4°C° 0 mm 1 m/s 716 mmHg 86%
01:00 +3°C° 0 mm 1 m/s 716 mmHg 86%
02:00 +3°C° 0 mm 1 m/s 715 mmHg 85%
03:00 +3°C° 0 mm 1 m/s 715 mmHg 85%
04:00 +3°C° 0 mm 1 m/s 715 mmHg 83%
05:00 +3°C° 0 mm 1 m/s 715 mmHg 81%
06:00 +3°C° 0 mm 1 m/s 715 mmHg 79%
07:00 +5°C° 0 mm 1 m/s 715 mmHg 69%
08:00 +7°C° 0 mm 1 m/s 715 mmHg 60%
09:00 +9°C° 0 mm 0 m/s 715 mmHg 50%
10:00 +10°C° 0 mm 0 m/s 715 mmHg 46%
11:00 +13°C° 0 mm 1 m/s 715 mmHg 42%
12:00 +14°C° 0 mm 1 m/s 715 mmHg 37%
13:00 +15°C° 0 mm 1 m/s 714 mmHg 36%
14:00 +15°C° 0 mm 1 m/s 714 mmHg 35%
15:00 +16°C° 0 mm 1 m/s 713 mmHg 34%
16:00 +15°C° 0 mm 1 m/s 713 mmHg 41%
17:00 +14°C° 0 mm 1 m/s 713 mmHg 48%
18:00 +12°C° 0 mm 1 m/s 713 mmHg 55%
19:00 +11°C° 0 mm 1 m/s 713 mmHg 59%
20:00 +9°C° 0 mm 1 m/s 713 mmHg 62%
21:00 +8°C° 0 mm 1 m/s 713 mmHg 65%
22:00 +8°C° 0 mm 1 m/s 713 mmHg 65%
23:00 +7°C° 0 mm 1 m/s 713 mmHg 65%

Depois de amanhã, 14 Abril, Quarta-feira

Tempo Temperatura Precipitação Vento Pressão Humidade
00:00 +7°C° 0 mm 1 m/s 713 mmHg 65%
01:00 +7°C° 0 mm 1 m/s 712 mmHg 65%
02:00 +7°C° 0 mm 1 m/s 712 mmHg 65%
03:00 +6°C° 0 mm 0 m/s 712 mmHg 64%
04:00 +6°C° 0 mm 0 m/s 712 mmHg 63%
05:00 +7°C° 0 mm 0 m/s 712 mmHg 62%
06:00 +7°C° 0 mm 0 m/s 712 mmHg 61%
07:00 +9°C° 0 mm 1 m/s 712 mmHg 58%
08:00 +11°C° 0 mm 1 m/s 712 mmHg 55%
09:00 +12°C° 0 mm 1 m/s 712 mmHg 52%
10:00 +13°C° 0 mm 1 m/s 712 mmHg 50%
11:00 +15°C° 0 mm 1 m/s 712 mmHg 48%
12:00 +16°C° 0 mm 1 m/s 712 mmHg 46%
13:00 +16°C° 0 mm 1 m/s 711 mmHg 46%
14:00 +18°C° 0 mm 1 m/s 711 mmHg 46%
15:00 +17°C° 0 mm 2 m/s 710 mmHg 46%
16:00 +16°C° 0 mm 2 m/s 710 mmHg 53%
17:00 +15°C° 0 mm 2 m/s 710 mmHg 60%
18:00 +13°C° 0 mm 2 m/s 710 mmHg 67%
19:00 +12°C° 0 mm 2 m/s 710 mmHg 72%
20:00 +9°C° 0 mm 2 m/s 710 mmHg 76%
21:00 +7°C° 0 mm 2 m/s 711 mmHg 81%
22:00 +7°C° 0 mm 2 m/s 711 mmHg 81%
23:00 +8°C° 0 mm 1 m/s 711 mmHg 81%

15 Abril, Quinta-feira

Tempo Temperatura Precipitação Vento Pressão Humidade
00:00 +8°C° 0 mm 1 m/s 710 mmHg 81%
01:00 +8°C° 0 mm 1 m/s 710 mmHg 81%
02:00 +8°C° 0 mm 1 m/s 710 mmHg 80%
03:00 +8°C° 0 mm 1 m/s 710 mmHg 79%
04:00 +8°C° 0 mm 1 m/s 710 mmHg 80%
05:00 +8°C° 0 mm 1 m/s 710 mmHg 80%
06:00 +8°C° 0 mm 0 m/s 710 mmHg 80%
07:00 +9°C° 0 mm 1 m/s 710 mmHg 78%
08:00 +10°C° 0 mm 1 m/s 710 mmHg 77%
09:00 +11°C° 0 mm 1 m/s 711 mmHg 75%
10:00 +12°C° 0 mm 1 m/s 710 mmHg 72%
11:00 +13°C° 0 mm 1 m/s 710 mmHg 69%
12:00 +13°C° 0 mm 1 m/s 710 mmHg 67%
13:00 +14°C° 0 mm 1 m/s 710 mmHg 66%
14:00 +14°C° 0 mm 1 m/s 709 mmHg 65%
15:00 +14°C° 0 mm 1 m/s 709 mmHg 64%
16:00 +13°C° 0 mm 2 m/s 709 mmHg 66%
17:00 +13°C° 0 mm 2 m/s 709 mmHg 69%
18:00 +12°C° 0 mm 2 m/s 709 mmHg 71%
19:00 +10°C° 0 mm 2 m/s 709 mmHg 73%
20:00 +9°C° 0 mm 2 m/s 710 mmHg 75%
21:00 +8°C° 0 mm 2 m/s 710 mmHg 76%
22:00 +7°C° 0 mm 2 m/s 710 mmHg 77%
23:00 +7°C° 0 mm 2 m/s 710 mmHg 77%

16 Abril, Sexta-feira

Tempo Temperatura Precipitação Vento Pressão Humidade
00:00 +6°C° 0 mm 2 m/s 710 mmHg 77%
01:00 +5°C° 0 mm 2 m/s 710 mmHg 78%
02:00 +4°C° 0 mm 2 m/s 710 mmHg 79%
03:00 +4°C° 0 mm 2 m/s 710 mmHg 80%
04:00 +3°C° 0 mm 2 m/s 710 mmHg 83%
05:00 +3°C° 0 mm 2 m/s 710 mmHg 86%
06:00 +3°C° 0 mm 2 m/s 710 mmHg 89%
07:00 +4°C° 0 mm 3 m/s 710 mmHg 82%
08:00 +5°C° 0 mm 3 m/s 710 mmHg 75%
09:00 +7°C° 0 mm 4 m/s 711 mmHg 69%
10:00 +7°C° 0 mm 4 m/s 711 mmHg 66%
11:00 +7°C° 0 mm 5 m/s 711 mmHg 63%
12:00 +8°C° 0 mm 5 m/s 710 mmHg 61%
13:00 +8°C° 0 mm 6 m/s 710 mmHg 59%
14:00 +8°C° 0 mm 6 m/s 710 mmHg 58%
15:00 +7°C° 0 mm 6 m/s 710 mmHg 56%
16:00 +5°C° 0 mm 6 m/s 711 mmHg 63%
17:00 +5°C° 0 mm 5 m/s 711 mmHg 69%
18:00 +2°C° 0 mm 5 m/s 711 mmHg 75%
19:00 +1°C° 0.1 mm 4 m/s 711 mmHg 78%
20:00 0°C° 0.1 mm 4 m/s 712 mmHg 81%
21:00 -1°C° 0.1 mm 4 m/s 712 mmHg 84%
22:00 0°C° 0.3 mm 4 m/s 712 mmHg 86%
23:00 +1°C° 0.3 mm 3 m/s 711 mmHg 89%

17 Abril, Sábado

Tempo Temperatura Precipitação Vento Pressão Humidade
00:00 +1°C° 0.3 mm 3 m/s 711 mmHg 92%
01:00 0°C° 0.2 mm 4 m/s 711 mmHg 91%
02:00 +1°C° 0.2 mm 4 m/s 711 mmHg 90%
03:00 +1°C° 0.2 mm 5 m/s 711 mmHg 89%
04:00 +1°C° 0.1 mm 5 m/s 711 mmHg 89%
05:00 +1°C° 0.1 mm 5 m/s 711 mmHg 89%
06:00 +1°C° 0.1 mm 6 m/s 711 mmHg 88%
07:00 +2°C° 0 mm 6 m/s 711 mmHg 84%
08:00 +3°C° 0 mm 6 m/s 711 mmHg 79%
09:00 +4°C° 0 mm 7 m/s 712 mmHg 75%
10:00 +5°C° 0 mm 7 m/s 712 mmHg 70%
11:00 +6°C° 0 mm 7 m/s 712 mmHg 64%
12:00 +8°C° 0 mm 7 m/s 712 mmHg 59%
13:00 +8°C° 0 mm 7 m/s 712 mmHg 57%
14:00 +9°C° 0 mm 7 m/s 712 mmHg 56%
15:00 +9°C° 0 mm 6 m/s 712 mmHg 54%
16:00 +8°C° 0 mm 6 m/s 712 mmHg 59%
17:00 +7°C° 0 mm 5 m/s 712 mmHg 64%
18:00 +6°C° 0 mm 4 m/s 713 mmHg 68%
19:00 +4°C° 0 mm 4 m/s 713 mmHg 75%
20:00 +3°C° 0 mm 3 m/s 714 mmHg 82%
21:00 +1°C° 0 mm 3 m/s 714 mmHg 88%
22:00 +2°C° 0 mm 2 m/s 714 mmHg 89%
23:00 +2°C° 0 mm 2 m/s 714 mmHg 89%
Mostrar mais